Regional Weather Roundup
Issued by NWS Little Rock, AR

Home | Current Version | Previous Version | Text Only | Print | Product List | Glossary On
Versions: 1 2 3 4 5 6 7 8 9 10 11 12 13 14 15 16 17 18 19 20 21 22 23 24 25 26 27 28 29 30 31 32 33 34 35 36 37 38 39 40 41 42 43 44 45 46 47 48 49 50
840
ASUS44 KLZK 072105
RWRLZK

WEATHER ROUNDUP FOR ARKANSAS
NATIONAL WEATHER SERVICE LITTLE ROCK AR
300 PM CST SUN FEB 07 2016

NOTE: "FAIR" INDICATES FEW OR NO CLOUDS BELOW 12,000 FEET WITH NO
SIGNIFICANT WEATHER AND/OR OBSTRUCTIONS TO VISIBILITY.

ARZ001-003-010-029-072200-
NORTHWEST ARKANSAS

CITY           SKY/WX    TMP DP  RH WIND       PRES   REMARKS
FAYETTEVILLE   SUNNY     52  30  43 NW14G20   30.08R
FORT SMITH     MOSUNNY   59  26  28 NW23G30   30.07R
HARRISON       SUNNY     54  29  38 W12G25    30.02R
BENTONVILLE    SUNNY     52  28  40 W12       30.08S
ROGERS         SUNNY     51  30  44 W12       30.06S
SILOAM SPGS    SUNNY     54  28  37 NW8       30.08F
HIGHFILL       SUNNY     52  31  44 NW9       30.07S
SPRINGDALE     MOSUNNY  N/A N/A N/A NW14G20   30.08S
$$

ARZ004-005-016-072200-
NORTH CENTRAL ARKANSAS

CITY           SKY/WX    TMP DP  RH WIND       PRES   REMARKS
BATESVILLE     MOSUNNY   57  27  30 SW12G21   30.00F
FLIPPIN        MOSUNNY  N/A N/A N/A NW10G16   29.98S
MTN HOME       CLOUDY    54  28  36 NW12G23   29.99S
$$

ARZ040-041-072200-
WEST CENTRAL ARKANSAS

CITY           SKY/WX    TMP DP  RH WIND       PRES   REMARKS
MENA           SUNNY     61  30  31 SW13G20   30.06F
MOUNT IDA      SUNNY     61  28  28 W6        30.02F
$$

ARZ009-017-025-026-028-072200-
NORTHEAST ARKANSAS

CITY           SKY/WX    TMP DP  RH WIND       PRES   REMARKS
CORNING        FAIR      57  32  38 SW16G23   29.97S
JONESBORO      MOSUNNY   55  31  39 SW21      29.99F
NEWPORT        CLOUDY    61  25  25 SW18      30.01F
WALNUT RIDGE   CLOUDY    61  27  27 W15       29.98S
BLYTHEVILLE    CLOUDY    60  31  33 SW21G29   30.00F
$$

ARZ022-023-033-042-044-072200-
CENTRAL ARKANSAS

CITY           SKY/WX    TMP DP  RH WIND       PRES   REMARKS
LITTLE ROCK    CLOUDY    61  28  28 SW16      30.05F
N LITTLE ROCK  PTSUNNY   59  29  31 SW9G20    30.05F
JACKSONVILLE   MOSUNNY   60  28  29 SW16G22   30.02F
SEARCY         CLOUDY    59  26  28 SW8G17    30.03F
HOT SPRINGS    MOSUNNY   59  28  30 SW14      30.05F
RUSSELLVILLE   CLOUDY    56  31  38 NW9       30.03F
CLINTON        FAIR      57  27  30 W12G20    30.02F
$$

ARZ036-072200-
EAST ARKANSAS

CITY           SKY/WX    TMP DP  RH WIND       PRES   REMARKS
WEST MEMPHIS   MOSUNNY   56  31  38 SW9       30.02F
$$

ARZ050-053-066-070-073-072200-
SOUTHWEST ARKANSAS

CITY           SKY/WX    TMP DP  RH WIND       PRES   REMARKS
ARKADELPHIA    FAIR      63  33  32 SW10      30.08F
CAMDEN         SUNNY     64  23  20 W5        30.10F
TEXARKANA      SUNNY     60  28  29 W3        30.10F
EL DORADO      SUNNY     61  24  24 SW9       30.11F
DE QUEEN       SUNNY     61  33  35 W13       30.07F
$$

ARZ056-057-069-072200-
SOUTHEAST ARKANSAS

CITY           SKY/WX    TMP DP  RH WIND       PRES   REMARKS
PINE BLUFF     MOSUNNY   59  28  30 SW15G22   30.07F
STUTTGART      PTSUNNY   59  30  33 SW15      30.06F
MONTICELLO     SUNNY     62  26  25 SW8       30.09F

$$






USA.gov is the U.S. government's official web portal to all federal, state and local government web resources and services.